• In Russia
  • List of Countries
  • For 7 days
  • Water Temperature
  • Weather Map
  • Weather Widgets
  • user-avatar
    Login

    Hourly Weather Tarin Kowt

    Today, 22 January, Wednesday

    Time Temperature Precipitation Wind Pressure Humidity
    00:00 0°C° 0 mm 1 mps 618 mmHg 88%
    01:00 0°C° 0 mm 1 mps 618 mmHg 90%
    02:00 0°C° 0 mm 1 mps 618 mmHg 89%
    03:00 -1°C° 0 mm 1 mps 618 mmHg 89%
    04:00 -1°C° 0 mm 1 mps 618 mmHg 89%
    05:00 -1°C° 0 mm 1 mps 618 mmHg 88%
    06:00 -1°C° 0 mm 1 mps 619 mmHg 87%
    07:00 -3°C° 0 mm 2 mps 619 mmHg 87%
    08:00 -2°C° 0 mm 2 mps 619 mmHg 81%
    09:00 -1°C° 0 mm 2 mps 620 mmHg 76%
    10:00 +1°C° 0 mm 2 mps 620 mmHg 71%
    11:00 +1°C° 0 mm 2 mps 620 mmHg 67%
    12:00 +2°C° 0 mm 2 mps 619 mmHg 63%
    13:00 +3°C° 0 mm 2 mps 619 mmHg 59%
    14:00 +3°C° 0 mm 2 mps 619 mmHg 60%
    15:00 +2°C° 0 mm 2 mps 618 mmHg 60%
    16:00 +2°C° 0 mm 2 mps 618 mmHg 60%
    17:00 +2°C° 0 mm 2 mps 619 mmHg 63%
    18:00 +1°C° 0 mm 2 mps 619 mmHg 67%
    19:00 -1°C° 0 mm 2 mps 619 mmHg 70%
    20:00 -1°C° 0 mm 2 mps 620 mmHg 70%
    21:00 -1°C° 0 mm 2 mps 620 mmHg 70%
    22:00 -2°C° 0 mm 2 mps 620 mmHg 70%
    23:00 -2°C° 0 mm 2 mps 620 mmHg 70%

    Tomorrow, 23 January, Thursday

    Time Temperature Precipitation Wind Pressure Humidity
    00:00 -2°C° 0 mm 2 mps 619 mmHg 69%
    01:00 -2°C° 0 mm 2 mps 619 mmHg 69%
    02:00 -3°C° 0 mm 2 mps 619 mmHg 68%
    03:00 -3°C° 0 mm 2 mps 618 mmHg 67%
    04:00 -3°C° 0 mm 2 mps 618 mmHg 66%
    05:00 -3°C° 0 mm 2 mps 618 mmHg 64%
    06:00 -3°C° 0 mm 2 mps 619 mmHg 62%
    07:00 -3°C° 0 mm 2 mps 619 mmHg 59%
    08:00 -2°C° 0 mm 2 mps 619 mmHg 55%
    09:00 -1°C° 0 mm 3 mps 619 mmHg 51%
    10:00 0°C° 0 mm 3 mps 619 mmHg 47%
    11:00 +2°C° 0 mm 2 mps 619 mmHg 47%
    12:00 +3°C° 0 mm 2 mps 618 mmHg 47%
    13:00 +4°C° 0 mm 2 mps 618 mmHg 47%
    14:00 +4°C° 0 mm 2 mps 617 mmHg 49%
    15:00 +4°C° 0 mm 2 mps 617 mmHg 51%
    16:00 +4°C° 0 mm 2 mps 617 mmHg 53%
    17:00 +3°C° 0 mm 2 mps 617 mmHg 57%
    18:00 +2°C° 0 mm 2 mps 617 mmHg 60%
    19:00 +1°C° 0 mm 2 mps 617 mmHg 64%
    20:00 +1°C° 0 mm 2 mps 617 mmHg 65%
    21:00 +1°C° 0 mm 2 mps 617 mmHg 66%
    22:00 -1°C° 0 mm 2 mps 617 mmHg 67%
    23:00 -1°C° 0 mm 2 mps 616 mmHg 68%

    Day after tomorrow, 24 January, Friday

    Time Temperature Precipitation Wind Pressure Humidity
    00:00 -1°C° 0 mm 2 mps 616 mmHg 68%
    01:00 -1°C° 0 mm 2 mps 616 mmHg 68%
    02:00 +1°C° 0 mm 2 mps 615 mmHg 67%
    03:00 0°C° 0 mm 3 mps 615 mmHg 67%
    04:00 0°C° 0 mm 3 mps 615 mmHg 66%
    05:00 -1°C° 0.8 mm 3 mps 615 mmHg 75%
    06:00 -1°C° 0.8 mm 3 mps 614 mmHg 84%
    07:00 -2°C° 0.8 mm 3 mps 614 mmHg 93%
    08:00 -2°C° 2.6 mm 2 mps 614 mmHg 95%
    09:00 -2°C° 2.6 mm 2 mps 614 mmHg 97%
    10:00 -2°C° 2.6 mm 2 mps 614 mmHg 99%
    11:00 -1°C° 1.3 mm 2 mps 614 mmHg 98%
    12:00 -1°C° 1.3 mm 2 mps 614 mmHg 98%
    13:00 +1°C° 1.3 mm 1 mps 613 mmHg 98%
    14:00 +1°C° 0.7 mm 1 mps 613 mmHg 98%
    15:00 +1°C° 0.7 mm 1 mps 613 mmHg 98%
    16:00 +1°C° 0.7 mm 1 mps 613 mmHg 98%
    17:00 +1°C° 0.3 mm 1 mps 613 mmHg 98%
    18:00 +1°C° 0.3 mm 1 mps 614 mmHg 98%
    19:00 +2°C° 0.3 mm 1 mps 614 mmHg 99%
    20:00 +2°C° 0.7 mm 1 mps 615 mmHg 98%
    21:00 +2°C° 0.7 mm 1 mps 615 mmHg 98%
    22:00 +2°C° 0.7 mm 1 mps 615 mmHg 98%
    23:00 +2°C° 0 mm 1 mps 615 mmHg 97%

    25 January, Saturday

    Time Temperature Precipitation Wind Pressure Humidity
    00:00 +1°C° 0 mm 1 mps 615 mmHg 97%
    01:00 -1°C° 0 mm 2 mps 614 mmHg 97%
    02:00 -1°C° 0 mm 2 mps 614 mmHg 96%
    03:00 -1°C° 0 mm 2 mps 614 mmHg 96%
    04:00 -1°C° 0 mm 2 mps 614 mmHg 96%
    05:00 -1°C° 0 mm 2 mps 615 mmHg 96%
    06:00 -1°C° 0 mm 2 mps 615 mmHg 95%
    07:00 -1°C° 0 mm 2 mps 616 mmHg 95%
    08:00 -1°C° 0 mm 2 mps 616 mmHg 94%
    09:00 +1°C° 0 mm 2 mps 616 mmHg 94%
    10:00 +1°C° 0 mm 2 mps 616 mmHg 94%
    11:00 +2°C° 0 mm 2 mps 615 mmHg 92%
    12:00 +2°C° 0 mm 2 mps 615 mmHg 89%
    13:00 +2°C° 0 mm 2 mps 614 mmHg 87%
    14:00 +2°C° 0 mm 2 mps 614 mmHg 87%
    15:00 +2°C° 0 mm 2 mps 614 mmHg 87%
    16:00 +2°C° 0 mm 2 mps 613 mmHg 86%
    17:00 +1°C° 0 mm 2 mps 614 mmHg 85%
    18:00 -1°C° 0 mm 2 mps 614 mmHg 84%
    19:00 -1°C° 0 mm 2 mps 614 mmHg 82%
    20:00 -1°C° 0 mm 2 mps 614 mmHg 82%
    21:00 -2°C° 0 mm 2 mps 614 mmHg 82%
    22:00 -2°C° 0 mm 2 mps 614 mmHg 82%
    23:00 -2°C° 0 mm 2 mps 614 mmHg 82%

    26 January, Sunday

    Time Temperature Precipitation Wind Pressure Humidity
    00:00 -2°C° 0 mm 2 mps 614 mmHg 82%
    01:00 -2°C° 0 mm 2 mps 614 mmHg 83%
    02:00 -3°C° 0 mm 2 mps 613 mmHg 82%
    03:00 -3°C° 0 mm 2 mps 613 mmHg 81%
    04:00 -3°C° 0 mm 2 mps 613 mmHg 80%
    05:00 -3°C° 0 mm 2 mps 613 mmHg 77%
    06:00 -3°C° 0 mm 2 mps 613 mmHg 74%
    07:00 -3°C° 0 mm 2 mps 613 mmHg 71%
    08:00 -2°C° 0 mm 2 mps 614 mmHg 66%
    09:00 -1°C° 0 mm 2 mps 614 mmHg 60%
    10:00 -1°C° 0 mm 2 mps 614 mmHg 54%
    11:00 +1°C° 0 mm 2 mps 613 mmHg 52%
    12:00 +2°C° 0 mm 2 mps 613 mmHg 51%
    13:00 +2°C° 0 mm 2 mps 612 mmHg 49%
    14:00 +2°C° 0 mm 2 mps 612 mmHg 52%
    15:00 +2°C° 0 mm 2 mps 612 mmHg 54%
    16:00 +2°C° 0 mm 2 mps 612 mmHg 57%
    17:00 +1°C° 0 mm 2 mps 612 mmHg 59%
    18:00 +1°C° 0 mm 2 mps 612 mmHg 60%
    19:00 -1°C° 0 mm 2 mps 612 mmHg 61%
    20:00 +1°C° 0 mm 1 mps 612 mmHg 61%
    21:00 +1°C° 0 mm 1 mps 612 mmHg 61%
    22:00 0°C° 0 mm 1 mps 612 mmHg 61%
    23:00 0°C° 0 mm 1 mps 612 mmHg 61%

    27 January, Monday

    Time Temperature Precipitation Wind Pressure Humidity
    00:00 0°C° 0 mm 1 mps 612 mmHg 61%
    01:00 0°C° 0 mm 1 mps 612 mmHg 62%
    02:00 0°C° 0 mm 1 mps 612 mmHg 61%
    03:00 -1°C° 0 mm 1 mps 612 mmHg 61%
    04:00 -1°C° 0 mm 1 mps 612 mmHg 61%
    05:00 -1°C° 0 mm 1 mps 612 mmHg 60%
    06:00 -1°C° 0 mm 1 mps 613 mmHg 59%
    07:00 -1°C° 0 mm 1 mps 613 mmHg 58%
    08:00 0°C° 0 mm 1 mps 613 mmHg 54%
    09:00 +1°C° 0 mm 1 mps 614 mmHg 49%
    10:00 +1°C° 0 mm 1 mps 614 mmHg 45%
    11:00 +2°C° 0 mm 1 mps 613 mmHg 44%
    12:00 +3°C° 0 mm 1 mps 613 mmHg 43%
    13:00 +3°C° 0 mm 1 mps 613 mmHg 42%
    14:00 +3°C° 0 mm 1 mps 612 mmHg 44%
    15:00 +3°C° 0 mm 1 mps 612 mmHg 45%
    16:00 +3°C° 0 mm 1 mps 612 mmHg 46%
    17:00 +2°C° 0 mm 1 mps 613 mmHg 50%
    18:00 +1°C° 0 mm 1 mps 613 mmHg 54%
    19:00 0°C° 0 mm 1 mps 613 mmHg 58%
    20:00 0°C° 0 mm 1 mps 613 mmHg 57%
    21:00 0°C° 0 mm 1 mps 614 mmHg 56%
    22:00 0°C° 0 mm 1 mps 614 mmHg 55%
    23:00 -1°C° 0 mm 1 mps 614 mmHg 54%
    Show more